Stations météo

réclame
Mon MeteoGroup
Shobdon, Grande-Bretagne (3520): Température de l'air & dewpoint: 12.02.2019 16:00:00 - 18.02.2019 16:00:00 (GMT)Shobdon, Grande-Bretagne (3520): Température de l'air -20cm & Température de l'air -100cm: 12.02.2019 16:00:00 - 18.02.2019 16:00:00 (GMT)Shobdon, Grande-Bretagne (3520): Vitesse du vent & gusts: 12.02.2019 16:00:00 - 18.02.2019 16:00:00 (GMT)Shobdon, Grande-Bretagne (3520): Direction du vent: 12.02.2019 16:00:00 - 18.02.2019 16:00:00 (GMT)Shobdon, Grande-Bretagne (3520): reduced air pressure: 12.02.2019 16:00:00 - 18.02.2019 16:00:00 (GMT)Shobdon, Grande-Bretagne (3520): visibility: 12.02.2019 16:00:00 - 18.02.2019 16:00:00 (GMT)Shobdon, Grande-Bretagne (3520): Ensoleillement: 12.02.2019 16:00:00 - 18.02.2019 16:00:00 (GMT)Shobdon, Grande-Bretagne (3520): Quantités de précipitations: 12.02.2019 16:00:00 - 18.02.2019 16:00:00 (GMT)
Date & Time tt [°C] td [°C] tt -20cm [°C] tt -100cm [°C] ff [km/h] ff [knt] fx [km/h] fx [knt] dd ppp [hPa] vv [km] sd [min] rr [mm]
18.02.2019 16:00:00 9,8 2,9 - - 34 18 48 26 W 1011,9 30 60 0,0
18.02.2019 15:00:00 10,2 3,2 - - 31 17 - - WSW 1011,7 35 24 0,0
18.02.2019 14:00:00 9,4 3,0 - - 28 15 - - WSW 1012,0 40 0 0,0
18.02.2019 13:00:00 9,4 4,2 - - 21 11 - - W 1012,5 35 6 0,0
18.02.2019 12:00:00 9,3 5,6 - - 22 12 - - WSW 1012,7 30 6 0,0
18.02.2019 11:00:00 8,2 5,4 - - 21 11 - - SW 1012,7 65 0 0,2
18.02.2019 10:00:00 7,7 5,5 - - 8 4 - - WSW 1012,4 35 0 0,0
18.02.2019 09:00:00 7,5 5,0 6,2 6,4 15 8 - - SW 1012,4 14 0 0,2
18.02.2019 08:00:00 6,1 4,5 - - 8 4 - - SE 1012,3 23 0 0,0
18.02.2019 07:00:00 6,3 4,6 - - 8 4 - - ESE 1012,0 19 0 0,0
18.02.2019 06:00:00 6,5 4,5 - - 8 4 - - SE 1011,9 19 0 0,0
18.02.2019 05:00:00 7,2 5,3 - - 4 2 - - SSW 1011,8 16 0 0,0
18.02.2019 04:00:00 7,4 5,3 - - 8 4 - - SSE 1012,1 18 0 0,0
18.02.2019 03:00:00 6,5 4,5 - - 8 4 - - SE 1012,3 21 0 0,0
18.02.2019 02:00:00 7,9 5,4 - - 9 5 - - SE 1012,6 21 0 0,0
18.02.2019 01:00:00 7,8 5,7 - - 8 4 - - SSE 1012,8 19 0 0,0
18.02.2019 00:00:00 8,4 5,8 - - 9 5 - - SE 1012,7 7 - 0,0
17.02.2019 23:00:00 8,2 5,7 - - 5 3 - - S 1012,7 21 0 0,2
17.02.2019 22:00:00 8,8 4,8 - - 13 7 - - SE 1012,5 13 0 0,0
17.02.2019 21:00:00 9,0 4,3 - - 4 2 - - S 1012,4 27 0 0,0
17.02.2019 20:00:00 8,4 5,0 - - 9 5 - - SW 1012,3 24 0 0,0
17.02.2019 19:00:00 8,3 4,6 - - 5 3 - - WSW 1012,0 28 0 0,0
17.02.2019 18:00:00 9,3 4,6 - - 13 7 - - SW 1011,6 30 0 0,0
17.02.2019 17:00:00 10,6 4,4 - - 21 11 - - WSW 1011,3 35 24 0,0
17.02.2019 16:00:00 12,2 5,0 - - 18 10 - - SW 1011,2 35 36 0,0
17.02.2019 15:00:00 12,7 5,4 - - 16 9 - - SW 1011,2 30 48 0,0
17.02.2019 14:00:00 12,5 5,8 - - 21 11 - - SW 1011,1 45 30 0,0
17.02.2019 13:00:00 10,4 7,6 - - 15 8 - - SSW 1011,3 14 0 0,0
17.02.2019 12:00:00 10,2 7,3 - - 11 6 - - S 1011,2 13 0 -
17.02.2019 11:00:00 9,6 6,5 - - 11 6 - - SSW 1011,3 15 6 -
17.02.2019 10:00:00 8,8 5,7 - - 5 3 - - SSW 1011,1 15 0 0,0
17.02.2019 09:00:00 7,2 4,8 6,0 6,2 11 6 - - ESE 1011,2 12 6 0,0
17.02.2019 08:00:00 5,8 4,4 - - 9 5 - - E 1011,4 7 0 0,0
17.02.2019 07:00:00 4,7 4,4 - - 11 6 - - ESE 1011,7 4,6 0 0,0
17.02.2019 06:00:00 6,0 5,5 - - 9 5 - - E 1012,5 6 0 0,0
17.02.2019 05:00:00 6,2 5,3 - - 5 3 - - E 1013,2 6 0 0,0
17.02.2019 04:00:00 8,0 6,4 - - 4 2 - - SE 1013,5 9 0 0,0
17.02.2019 03:00:00 9,7 7,6 - - 8 4 - - S 1014,6 13 0 0,0
17.02.2019 02:00:00 9,7 7,6 - - 13 7 - - S 1015,3 18 0 0,0
17.02.2019 01:00:00 9,8 7,3 - - 21 11 - - S 1016,0 21 0 0,0
17.02.2019 00:00:00 9,8 7,3 - - 13 7 - - S 1017,1 26 - 0,0
16.02.2019 23:00:00 9,6 7,2 - - 15 8 - - S 1017,7 23 0 0,0
16.02.2019 22:00:00 9,8 7,4 - - 15 8 - - S 1017,9 19 0 0,0
16.02.2019 21:00:00 10,6 8,5 - - 15 8 - - S 1018,1 18 0 0,0
16.02.2019 20:00:00 11,0 9,1 - - 18 10 - - S 1018,4 17 0 0,0
16.02.2019 19:00:00 11,4 9,2 - - 15 8 - - S 1018,4 19 0 0,0
16.02.2019 18:00:00 11,6 9,0 - - 13 7 - - S 1018,3 28 0 0,0
16.02.2019 17:00:00 11,6 8,9 - - 11 6 - - SSW 1018,2 27 0 0,0
16.02.2019 16:00:00 11,5 8,7 - - 13 7 - - S 1018,6 26 0 0,0
16.02.2019 15:00:00 11,8 8,3 - - 9 5 - - SSW 1019,0 30 0 0,0
16.02.2019 14:00:00 11,8 7,1 - - 21 11 - - WSW 1019,7 40 6 0,0
16.02.2019 13:00:00 13,0 6,7 - - 28 15 - - WSW 1020,4 50 60 0,0
16.02.2019 12:00:00 12,4 6,0 - - 26 14 - - WSW 1020,7 45 60 0,0
16.02.2019 11:00:00 11,6 5,8 - - 22 12 - - SW 1020,9 29 54 0,0
16.02.2019 10:00:00 9,7 6,8 - - 4 2 - - S 1020,9 35 12 0,0
16.02.2019 09:00:00 7,3 6,3 5,4 6,2 4 2 - - W 1021,1 30 0 0,0
16.02.2019 08:00:00 5,9 4,3 - - 4 2 - - WSW 1020,9 26 0 0,0
16.02.2019 07:00:00 5,8 4,1 - - 4 2 - - SSE 1020,2 24 0 0,0
16.02.2019 06:00:00 7,5 5,0 - - 16 9 - - WSW 1019,9 26 0 0,0
16.02.2019 05:00:00 9,1 6,0 - - 22 12 - - WSW 1019,9 26 0 0,0
16.02.2019 04:00:00 10,2 8,3 - - 15 8 - - WSW 1019,8 45 0 0,0
16.02.2019 03:00:00 9,0 8,5 - - 4 2 - - ESE 1019,6 9 0 0,0
16.02.2019 02:00:00 7,1 6,1 - - 5 3 - - ENE 1020,3 3,8 0 0,0
16.02.2019 01:00:00 6,9 6,4 - - 5 3 - - ENE 1020,3 4,4 0 0,0
16.02.2019 00:00:00 5,2 5,2 - - 5 3 - - E 1020,6 5 - 0,0
15.02.2019 23:00:00 3,9 2,1 - - 2 1 - - SSW 1021,0 4,0 0 0,0
15.02.2019 22:00:00 5,7 4,4 - - 8 4 - - SW 1021,0 11 0 0,0
15.02.2019 21:00:00 5,0 3,5 - - 2 1 - - SSE 1021,3 11 0 0,0
15.02.2019 20:00:00 6,9 4,1 - - 4 2 - - S 1021,8 20 0 0,0
15.02.2019 19:00:00 7,9 4,6 - - 4 2 - - W 1022,1 21 0 0,0
15.02.2019 18:00:00 9,8 5,3 - - 8 4 - - S 1022,1 21 0 0,0
15.02.2019 17:00:00 11,1 5,2 - - 9 5 - - S 1022,0 22 54 0,0
15.02.2019 16:00:00 12,5 5,4 - - 13 7 - - S 1022,2 20 60 0,0
15.02.2019 15:00:00 13,6 6,0 - - 9 5 - - SSE 1022,6 20 60 0,0
15.02.2019 14:00:00 13,0 6,6 - - 2 1 - - E 1023,4 13 60 0,0
15.02.2019 13:00:00 10,8 6,4 - - 4 2 - - NNE 1024,4 9 60 0,0
15.02.2019 12:00:00 8,9 5,3 - - 2 1 - - SSE 1025,1 6 60 0,0
15.02.2019 11:00:00 6,6 4,7 - - 4 2 - - ESE 1025,7 4,9 60 0,2
15.02.2019 10:00:00 3,7 3,7 - - 2 1 - - E 1026,1 2,5 60 0,0
15.02.2019 09:00:00 -0,7 -0,7 5,5 6,2 2 1 - - W 1026,6 2,0 30 0,0
15.02.2019 08:00:00 -3,1 -3,1 - - 2 1 - - W 1026,8 1,7 0 0,0
15.02.2019 07:00:00 -3,5 -3,7 - - 2 1 - - W 1026,8 1,9 0 0,0
15.02.2019 06:00:00 -3,1 -3,2 - - 2 1 - - SSE 1026,7 2,0 0 0,0
15.02.2019 05:00:00 -2,6 -2,6 - - 2 1 - - WNW 1026,9 1,6 0 0,0
15.02.2019 04:00:00 -2,5 -2,5 - - 2 1 - - W 1027,4 1,9 0 0,0
15.02.2019 03:00:00 -1,7 -1,7 - - 4 2 - - W 1027,6 1,7 0 0,0
15.02.2019 02:00:00 -0,8 -0,8 - - 2 1 - - N 1028,0 2,5 0 0,0
15.02.2019 01:00:00 -1,2 -1,3 - - 2 1 - - E 1028,4 0,4 0 0,0
15.02.2019 00:00:00 -0,3 -0,3 - - 2 1 - - E 1028,6 1,1 - 0,0
14.02.2019 23:00:00 -0,3 -0,4 - - 4 2 - - E 1028,8 1,0 0 0,0
14.02.2019 22:00:00 0,2 0,0 - - 2 1 - - WSW 1028,9 1,0 0 0,0
14.02.2019 21:00:00 1,0 0,4 - - 0 0 - - N 1029,0 0,9 0 0,0
14.02.2019 20:00:00 2,1 1,1 - - 2 1 - - E 1029,2 2,2 0 0,0
14.02.2019 19:00:00 3,7 2,1 - - 4 2 - - E 1029,4 3,8 0 0,0
14.02.2019 18:00:00 6,9 3,9 - - 8 4 - - ESE 1029,2 12 6 0,0
14.02.2019 17:00:00 9,0 4,2 - - 8 4 - - SE 1029,2 17 60 0,0
14.02.2019 16:00:00 10,8 4,5 - - 5 3 - - SE 1029,2 21 60 0,0
14.02.2019 15:00:00 11,5 4,2 - - 9 5 - - SSE 1029,3 24 60 0,0
14.02.2019 14:00:00 10,9 5,8 - - 8 4 - - SE 1029,9 12 60 0,0
14.02.2019 13:00:00 9,8 7,1 - - 5 3 - - W 1030,6 7 54 0,0
14.02.2019 12:00:00 7,2 6,7 - - 2 1 - - ESE 1031,6 5 6 0,0
14.02.2019 11:00:00 6,2 6,2 - - 2 1 - - S 1031,9 3,9 6 0,0
14.02.2019 10:00:00 4,4 4,4 - - 0 0 - - N 1031,9 2,7 0 0,0
14.02.2019 09:00:00 3,8 3,8 5,7 6,0 2 1 - - WNW 1031,8 2,8 0 0,0
14.02.2019 08:00:00 2,7 2,7 - - 5 3 - - NW 1031,6 0,1 0 0,0
14.02.2019 07:00:00 1,3 1,3 - - 4 2 - - W 1031,3 0,1 0 0,0
14.02.2019 06:00:00 -0,5 -0,5 - - 4 2 - - W 1031,0 - 0 0,0
14.02.2019 05:00:00 0,2 0,2 - - 4 2 - - WSW 1031,2 - 0 0,0
14.02.2019 04:00:00 0,1 0,1 - - 4 2 - - W 1031,3 1,1 0 0,0
14.02.2019 03:00:00 -0,8 -0,8 - - 2 1 - - WNW 1031,5 0,4 0 0,0
14.02.2019 02:00:00 -0,3 -0,3 - - 4 2 - - N 1031,6 0,4 0 0,0
14.02.2019 01:00:00 0,9 0,8 - - 0 0 - - N 1031,7 0,6 0 0,0
14.02.2019 00:00:00 1,9 1,9 - - 4 2 - - NNE 1031,4 1,4 - 0,0
13.02.2019 23:00:00 2,1 1,7 - - 4 2 - - WNW 1031,1 2,5 0 0,0
13.02.2019 22:00:00 2,6 1,7 - - 2 1 - - W 1030,8 2,9 0 0,0
13.02.2019 21:00:00 4,2 3,7 - - 4 2 - - S 1030,5 10 0 0,0
13.02.2019 20:00:00 4,2 2,4 - - 2 1 - - SSE 1030,4 17 0 0,0
13.02.2019 19:00:00 6,8 4,8 - - 5 3 - - SSW 1029,9 22 0 0,0
13.02.2019 18:00:00 8,0 4,6 - - 8 4 - - SSW 1029,6 28 0 0,0
13.02.2019 17:00:00 9,0 4,8 - - 5 3 - - S 1029,3 30 6 0,0
13.02.2019 16:00:00 9,8 5,7 - - 15 8 - - S 1029,6 30 0 0,0
13.02.2019 15:00:00 10,4 5,2 - - 15 8 - - SSW 1030,0 40 12 0,0
13.02.2019 14:00:00 10,0 5,4 - - 18 10 - - SW 1030,4 30 12 0,0
13.02.2019 13:00:00 10,1 5,4 - - 21 11 - - WSW 1030,6 30 42 0,0
13.02.2019 12:00:00 10,3 6,2 - - 16 9 - - SSW 1030,8 30 54 0,0
13.02.2019 11:00:00 8,7 5,7 - - 15 8 - - SSW 1030,7 27 12 0,0
13.02.2019 10:00:00 8,1 5,4 - - 15 8 - - SW 1030,5 30 0 0,0
13.02.2019 09:00:00 7,8 4,7 5,5 6,0 11 6 - - SSW 1030,7 40 0 0,0
13.02.2019 08:00:00 7,5 4,2 - - 9 5 - - SW 1031,1 40 0 0,0
13.02.2019 07:00:00 7,4 4,2 - - 9 5 - - SW 1030,8 35 0 0,0
13.02.2019 06:00:00 8,0 5,3 - - 11 6 - - SW 1030,6 29 0 0,0
13.02.2019 05:00:00 8,5 5,7 - - 15 8 - - SW 1030,7 30 0 0,0
13.02.2019 04:00:00 8,1 6,1 - - 9 5 - - WSW 1030,8 30 0 0,0
13.02.2019 03:00:00 8,6 6,3 - - 8 4 - - SSW 1031,4 21 0 0,0
13.02.2019 02:00:00 9,1 6,6 - - 13 7 - - SW 1031,8 21 0 0,0
13.02.2019 01:00:00 8,4 6,7 - - 5 3 - - SSW 1032,1 19 0 0,0
13.02.2019 00:00:00 8,7 7,0 - - 8 4 - - SW 1032,1 29 - 0,0
12.02.2019 23:00:00 8,5 7,0 - - 8 4 - - SW 1032,3 35 0 0,0
12.02.2019 22:00:00 8,3 6,6 - - 13 7 - - WSW 1032,0 45 0 0,0
12.02.2019 21:00:00 8,8 6,8 - - 16 9 - - WSW 1031,9 65 0 0,0
12.02.2019 20:00:00 9,1 6,8 - - 9 5 - - SW 1032,0 55 0 0,0
12.02.2019 19:00:00 9,3 6,8 - - 11 6 - - SW 1032,1 60 0 0,0
12.02.2019 18:00:00 9,6 6,8 - - 8 4 - - SSW 1031,5 75 0 0,0
12.02.2019 17:00:00 10,0 7,1 - - 15 8 - - WSW 1031,1 75 6 0,0
12.02.2019 16:00:00 10,1 7,3 - - 21 11 - - WSW 1031,0 75 0 0,0

tt = Température de l'air
td = dewpoint
tt -20cm = Température de l'air -20cm
tt -100cm = Température de l'air -100cm
ff = Vitesse du vent
fx = gusts
dd = Direction du vent
ppp = reduced air pressure
vv = visibility
sd = Ensoleillement
rr = Quantités de précipitations

stations d'obs. à proximité